weather.gov     
National Weather Service

Regional Weather Roundup
NWS Homepage
This page is being discontinued on March 12, 2014.
The same data is available at this site. Please update your bookmarks.
Thank you, and we apologize for the inconvenience.
Please send an email to SR-SRH.Webmaster@noaa.gov with any concerns.


Current Version
Previous Version:    01  02  03  04  05  06  07  08  09  10  11  12  13  14  15  16  17  18  19  20  21  22  23  24  25  26  27  28  29  30  
   31  32  33  34  35  36  37  38  39  40  41  42  43  44  45  46  47  48  49  50  51  52  53  54  
[Printable]
363
ASUS41 KBTV 301830
RWRBTV
VERMONT REGIONAL WEATHER ROUNDUP
NATIONAL WEATHER SERVICE BURLINGTON VT
200 PM EDT SAT AUG 30 2014

NOTE: "FAIR" INDICATES FEW OR NO CLOUDS BELOW 12,000 FEET WITH NO
SIGNIFICANT WEATHER AND/OR OBSTRUCTIONS TO VISIBILITY.

* THESE REPORTS ARE NOT UNDER NWS QUALITY CONTROL AND/OR DO NOT
  REPORT WEATHER SUCH AS PRECIPITATION AND FOG.

VTZ001>019-301900-
_____VERMONT_____


CITY           SKY/WX    TMP DP  RH WIND       PRES   REMARKS
BURLINGTON     MOCLDY    76  55  48 S17G26    30.10F
6HR MIN TEMP:  66; 6HR MAX TEMP:  76;

MONTPELIER     PTCLDY    73  52  47 S16G22    30.18F
6HR MIN TEMP:  59; 6HR MAX TEMP:  74;

MORRISVILLE    PTCLDY    75  54  47 S8G18     30.14F
6HR MIN TEMP:  56; 6HR MAX TEMP:  75;

ST. JOHNSBURY*   N/A     73  55  53 MISG      30.12F
6HR MIN TEMP:  59; 6HR MAX TEMP:  73;

MIDDLEBURY*    FAIR      77  57  49 S10G17    30.13F
6HR MIN TEMP:  64; 6HR MAX TEMP:  77;

RUTLAND*       CLEAR     75  55  50 SW7       30.15F
6HR MIN TEMP:  57; 6HR MAX TEMP:  75;

SPRINGFIELD    PTCLDY    75  58  55 S12G21    30.18F
6HR MIN TEMP:  54; 6HR MAX TEMP:  75;

HIGHGATE*      FAIR      74  57  54 S14G20    30.08F
6HR MIN TEMP:  64; 6HR MAX TEMP:  75;

NEWPORT*       FAIR      74  57  56 S12G20    30.12F
6HR MIN TEMP:  60; 6HR MAX TEMP:  73;

BENNINGTON     CLEAR     76  58  53 S12       30.19F
6HR MIN TEMP:  63; 6HR MAX TEMP:  76;

SUTTON*          N/A     70 N/A N/A MISG        N/A
MT. MANSFIELD*   N/A     61 N/A N/A SW7         N/A

_____LAKE CHAMPLAIN_____


CITY           SKY/WX    TMP DP  RH WIND       PRES   REMARKS
BURTON ISLAND*   N/A     72  59  64 SE18        N/A
COLCHESTER RF*   N/A     72  59  64 S26         N/A
DIAMOND ISL*     N/A     73  57  56 SE22        N/A

$$

NYZ007-026>031-035-052-083-301900-
_____NORTHERN NEW YORK_____


CITY           SKY/WX    TMP DP  RH WIND       PRES   REMARKS
PLATTSBURGH    MOCLDY    74  60  61 S17G29    30.08F
6HR MIN TEMP:  61; 6HR MAX TEMP:  75;

SARANAC LAKE   PTCLDY    77  56  48 SW18G24   30.10F
6HR MIN TEMP:  60; 6HR MAX TEMP:  79;

MASSENA        MOCLDY    77  62  59 SW6       30.05F
6HR MIN TEMP:  65; 6HR MAX TEMP:  78;

OGDENSBURG*    CLEAR     79  63  57 SW12      30.03F
POTSDAM*       CLEAR     79  64  61 W9        30.04F
WATERTOWN      PTCLDY    79  60  52 S12       30.05F
6HR MIN TEMP:  67; 6HR MAX TEMP:  80;

FT DRUM        PTCLDY    81  56  41 SW12      30.05F HAZE
6HR MIN TEMP:  62; 6HR MAX TEMP:  81;

ALBANY         PTCLDY    78  56  46 S13G23    30.16F
6HR MIN TEMP:  61; 6HR MAX TEMP:  79;

GLENS FALLS    CLEAR     76  58  53 S13G22    30.15F
6HR MIN TEMP:  61; 6HR MAX TEMP:  76;


$$
NHZ002-005-011-301900-
_____NEW HAMPSHIRE_____


CITY           SKY/WX    TMP DP  RH WIND       PRES   REMARKS
LEBANON        PTCLDY    75  55  49 S17       30.17F
6HR MIN TEMP:  59; 6HR MAX TEMP:  75;

KEENE          PTCLDY    73  52  46 S14G21    30.20F
6HR MIN TEMP:  54; 6HR MAX TEMP:  73;

MT WASHINGTON  PTCLDY    52  37  58 SW35        N/A
PLYMOUTH       FAIR      75  60  60 S6G17     30.17F
6HR MIN TEMP:  58; 6HR MAX TEMP:  75;

WHITEFIELD     PTCLDY    75  53  46 SW10      30.15F
6HR MIN TEMP:  54; 6HR MAX TEMP:  77;


$$

_____REGIONAL QUEBEC LOCATIONS_____


CITY           SKY/WX    TMP DP  RH WIND       PRES   REMARKS
MONTREAL       MOCLDY    79  59  50 SW13      30.04F
QUEBEC CITY    MOCLDY    75  59  57 SW16G24   30.03F
SHERBROOKE     PTCLDY    75  57  53 SW12G21   30.09F

_____REGIONAL ONTARIO LOCATIONS_____


CITY           SKY/WX    TMP DP  RH WIND       PRES   REMARKS
OTTAWA         MOCLDY    77  63  61 S9        30.02F

______KEY______
VSB  - VISIBILITY IN MILES
WCI  - WIND CHILL INDEX
HX   - HEAT INDEX
$$
NNNN




U.S. Dept. of Commerce
NOAA National Weather Service
1325 East West Highway
Silver Spring, MD 20910
E-mail: w-nws.webmaster@noaa.gov
Page last modified: May 16, 2007
NATIONAL WEATHER SERVICE: for Safety, for Work, for Fun - FOR LIFE